Vancouver, British Columbia

6:05 PM PDT on May 24, 2017 (GMT -0700)
Vancouver International Airport

Weather History for CYVR - October, 2012

Change the Weather History Date:

Tuesday, October 30, 2012

  Actual Average Record
Temperature  
Mean Temperature 53 °F -  
Max Temperature 55 °F 48 °F 59 °F (1997)
Min Temperature 51 °F 37 °F 30 °F (2002)
Degree Days  
Heating Degree Days 12    
Growing Degree Days 3 (Base 50)    
Moisture  
Dew Point 51 °F    
Average Humidity 93    
Maximum Humidity 100    
Minimum Humidity 88    
Precipitation  
Precipitation 0.28 in 0.22 in - ()
Sea Level Pressure  
Sea Level Pressure 29.84 in    
Wind  
Wind Speed 6 mph ()    
Max Wind Speed 12 mph    
Max Gust Speed 17 mph    
Visibility 9.8 miles    
Events Rain    
Averages and records for this station are not official NWS values.
T = Trace of Precipitation, MM = Missing Value Source: Averaged Metar Reports

Daily Weather History Graph

Daily Weather History Graph

Search for Another Location

Airport or City:

Trip Planner

Search our weather history database for the weather conditions in past years. The results will help you decide how hot, cold, wet, or windy it might be!

Date:

Astronomy

Oct. 30, 2012 Rise Set
Actual Time 7:58 AM PDT 5:53 PM PDT
Civil Twilight 7:24 AM PDT 6:26 PM PDT
Nautical Twilight 6:47 AM PDT 7:04 PM PDT
Astronomical Twilight 6:10 AM PDT 7:41 PM PDT
Moon 6:18 PM PDT (10/30) 8:57 AM PDT (10/30)
Length of Visible Light 11h 02m
Length of Day
9h 55m
Full, 99% of the Moon is Illuminated
Oct 30
Full
Nov 6
Last Quarter
Nov 13
New
Nov 20
First Quarter
Nov 28
Full

Hourly Weather History & Observations

Time (PDT) Temp. Dew Point Humidity Pressure Visibility Wind Dir Wind Speed Gust Speed Precip Events Conditions
12:00 AM 53.6 °F 50.0 °F 88% 29.91 in 12.0 mi SE 11.5 mph 17.3 mph N/A   Overcast
1:00 AM 53.6 °F 50.0 °F 88% 29.91 in 12.0 mi NE 10.4 mph - N/A   Overcast
1:37 AM 53.6 °F - N/A% - 12.0 mi ENE 5.8 mph - N/A Rain Light Rain Showers
2:00 AM 53.6 °F 50.0 °F 88% 29.91 in 12.0 mi ESE 6.9 mph - N/A Rain Light Rain Showers
3:00 AM 53.6 °F 50.0 °F 88% 29.89 in 10.0 mi SE 8.1 mph - N/A Rain Light Rain Showers
4:00 AM 53.6 °F 51.8 °F 94% 29.88 in 10.0 mi SE 8.1 mph - N/A Rain Light Rain Showers
5:00 AM 52 °F 51 °F 93% 29.87 in 10 mi East 6.9 mph - - Rain Light Rain Showers
5:00 AM 51.8 °F 50.0 °F 94% 29.87 in 10.0 mi East 6.9 mph - N/A Rain Light Rain Showers
6:00 AM 51.8 °F 50.0 °F 94% 29.86 in 12.0 mi East 5.8 mph - N/A Rain Light Rain Showers
6:51 AM 51.8 °F - N/A% - 12.0 mi East 6.9 mph - N/A Rain Light Rain Showers
7:00 AM 51.8 °F 50.0 °F 94% 29.86 in 12.0 mi East 6.9 mph - N/A Rain Light Rain Showers
8:00 AM 53.6 °F 51.8 °F 94% 29.85 in 15.0 mi East 8.1 mph - N/A Rain Light Rain Showers
8:47 AM 51.8 °F - N/A% - 15.0 mi East 4.6 mph - N/A   Overcast
9:00 AM 53.6 °F 51.8 °F 94% 29.87 in 15.0 mi East 5.8 mph - N/A   Overcast
10:00 AM 55.4 °F 51.8 °F 88% 29.88 in 15.0 mi ESE 4.6 mph - N/A   Overcast
11:00 AM 54 °F 51 °F 88% 29.87 in 15 mi South 4.6 mph - -   Partly Cloudy
11:00 AM 53.6 °F 51.8 °F 94% 29.87 in 15.0 mi SSE 3.5 mph - N/A   Overcast
12:00 PM 55.4 °F 51.8 °F 88% 29.87 in 12.0 mi West 6.9 mph - N/A   Overcast
12:41 PM 51.8 °F - N/A% - 12.0 mi West 5.8 mph - N/A   Overcast
1:00 PM 51.8 °F 50.0 °F 94% 29.87 in 10.0 mi WNW 6.9 mph - N/A   Overcast
1:32 PM 51.8 °F - N/A% - 10.0 mi NW 5.8 mph - N/A   Overcast
1:55 PM 51.8 °F - N/A% - 10.0 mi NW 5.8 mph - N/A Rain Light Rain Showers
2:00 PM 51.8 °F 51.8 °F 100% 29.86 in 6.0 mi NW 6.9 mph - N/A Rain Light Rain Showers
2:33 PM 51.8 °F - N/A% - 6.0 mi NW 4.6 mph - N/A Rain Light Rain Showers
3:00 PM 51.8 °F 50.0 °F 94% 29.83 in 6.0 mi NW 3.5 mph - N/A Rain Light Rain Showers
4:00 PM 51.8 °F 50.0 °F 94% 29.83 in 5.0 mi Calm Calm - N/A Rain Light Rain Showers
4:45 PM 53.6 °F - N/A% - 4.0 mi Calm Calm - N/A Rain Light Rain Showers
5:00 PM 53 °F 51 °F 92% 29.81 in 4 mi East 5.8 mph - - Rain Light Rain Showers
5:00 PM 53.6 °F 51.8 °F 94% 29.81 in 4.0 mi East 5.8 mph - N/A Rain Light Rain Showers
5:52 PM 53.6 °F - N/A% - 7.0 mi ENE 6.9 mph - N/A Rain Light Rain Showers
6:00 PM 53.6 °F 51.8 °F 94% 29.79 in 7.0 mi East 6.9 mph - N/A Rain Light Rain Showers
7:00 PM 53.6 °F 51.8 °F 94% 29.78 in 8.0 mi East 6.9 mph - N/A Rain Light Rain Showers
8:00 PM 53.6 °F 51.8 °F 94% 29.76 in 8.0 mi East 5.8 mph - N/A Rain Light Rain Showers
9:00 PM 51.8 °F 51.8 °F 100% 29.76 in 8.0 mi East 6.9 mph - N/A Rain Light Rain
10:00 PM 51.8 °F 50.0 °F 94% 29.74 in 8.0 mi East 10.4 mph - N/A Rain Light Rain
11:00 PM 52 °F 50 °F 91% 29.75 in 7 mi East 8.1 mph - - Rain Light Rain
11:00 PM 51.8 °F 50.0 °F 94% 29.75 in 8.0 mi East 9.2 mph - N/A Rain Light Rain